Content
SEND FEEDBACK

Daily
Averages
Monthly
Summary
China

WUHAN, CHINA


Home > Asia > China
Elevation: 75 feet     Latitude: 30 37N     Longitude: 114 08E

WEATHER
 
SELECT A DAY
Number of Records: 138,009;   Date Range: 1/29/00 - 7/28/14
 
SHARE

PRINT THIS DATA

[ ← Previous Day ]
WEATHER ALMANAC - MARCH 29, 2014
[ Next Day → ]
[ °C ]   °F
Weather ElementAverageHighLow
Temperature70.6 °F81 °F (2:00 pm)61 °F (11:00 pm)
Dewpoint58.5 °F64.4 °F (1:00 am)49 °F (5:00 pm)
Humidity68 %100 % (1:00 am)23 % (5:00 pm)
Barometer29.82 in29.95 in (11:00 pm)29.70 in (2:00 am)
Wind Speed5.3 mph11.2 mph (2:00 am)
Weather ElementAverage
Visibility2.9 mi
Wind DirectionSSW (194 °)

Weather ElementTotal
Precipitation---
Cooling Degree Days6 (Base 65)
Growing Degree Days21 (Base 50)
Averaged from 31 records on March 29, 2014
WEATHER CONDITIONS BREAKOUT
WIND DIRECTION BREAKOUT
WEATHER BY HOUR - MARCH 29, 2014
[ °C ]   °F
Local TimeTemperatureDewpointHumidityBarometerVisibilityWind DirectionWind SpeedGust SpeedPrecipitationEventsConditions
1:00 AM64.4 °F64.4 °F100 %29.71 in1.7 miNorth (10°)6.7 mphRain-ThunderstormThunderstorms and Rain
2:00 AM66.0 °F64.0 °F90 %29.70 in3.0 miNorth11.2 mphRainRain
2:00 AM64.4 °F64.4 °F100 %29.71 in1.7 miNNE (30°)8.9 mphRain-ThunderstormThunderstorms and Rain
3:00 AM64.4 °F62.6 °F94 %29.71 in1.6 miNE (40°)6.7 mphRain-ThunderstormThunderstorms and Rain
4:00 AM62.6 °F62.6 °F100 %29.71 in2.5 miNNE (30°)4.5 mphRainLight Rain Showers
5:00 AM64.0 °F63.0 °F94 %29.72 in1.0 miNW (320°)2.2 mphRainLight Rain
5:00 AM62.6 °F62.6 °F100 %29.71 in2.5 miVariable2.2 mphOvercast
6:00 AM64.4 °F64.4 °F100 %29.71 in1.9 miWNW (300°)4.5 mphOvercast
7:00 AM64.4 °F64.4 °F100 %29.77 in1.6 miNW (310°)6.7 mphOvercast
8:00 AM65.0 °F60.0 °F81 %29.81 in4.0 miNW (320°)4.5 mphMist
8:00 AM66.2 °F62.6 °F88 %29.80 in2.5 miNNW (340°)4.5 mphOvercast
9:00 AM68.0 °F57.2 °F68 %29.83 in5.0 miNorth (350°)6.7 mph
10:00 AM71.6 °F55.4 °F57 %29.86 in5.0 miNorth (350°)8.9 mph
11:00 AM76.0 °F54.0 °F35 %29.88 in4.0 miNNW (340°)6.7 mphHaze
11:00 AM73.4 °F57.2 °F57 %29.86 in5.0 miNNW (330°)6.7 mph
12:00 PM75.2 °F57.2 °F53 %29.86 inNW (320°)6.7 mphClear
1:00 PM77.0 °F57.2 °F50 %29.86 inNW (310°)6.7 mphClear
2:00 PM81.0 °F53.0 °F28 %29.87 in4.0 miNNW (340°)2.2 mphHaze
2:00 PM78.8 °F57.2 °F47 %29.86 inWNW (300°)6.7 mphClear
3:00 PM80.6 °F55.4 °F42 %29.86 inWNW (290°)6.7 mphClear
4:00 PM80.6 °F55.4 °F42 %29.83 inVariable2.2 mphClear
5:00 PM80.0 °F49.0 °F23 %29.84 in4.0 miSSE (160°)4.5 mphHaze
5:00 PM78.8 °F55.4 °F44 %29.83 inWSW (250°)4.5 mphClear
6:00 PM77.0 °F57.2 °F50 %29.83 inSouth (170°)4.5 mphClear
7:00 PM77.0 °F55.4 °F47 %29.83 inSE (140°)4.5 mphClear
8:00 PM66.0 °F60.0 °F76 %29.88 in2.0 miCalmMist
8:00 PM68.0 °F59.0 °F73 %29.89 inENE (60°)4.5 mphClear
9:00 PM71.6 °F57.2 °F60 %29.92 inESE (110°)4.5 mphClear
10:00 PM71.6 °F53.6 °F53 %29.92 inSE (140°)4.5 mphClear
11:00 PM61.0 °F59.0 °F92 %29.94 in2.0 miENE (70°)2.2 mphMist
11:00 PM66.2 °F53.6 °F64 %29.95 inEast (90°)6.7 mphClear
Hourly data recorded from ZHHH, located miles away from Wuhan, China







STORIES FROM OUR PARTNERS